Content
SEND FEEDBACK

Mexico Flag

MORELIA, MICHOACAN


Home > North America > Mexico > Michoacan
Elevation: 6275 feet     Latitude: 19 42N     Longitude: 101 11W

WEATHER
 
SELECT A DAY
Number of Records: 167,776;   Date Range: 1/1/95 - 3/22/16
 
SHARE

PRINT THIS DATA

[ ← Previous Day ]
WEATHER ALMANAC - FEBRUARY 8, 2013
[ Next Day → ]
[ °C ]   °F
Weather ElementAverageHighLow
Temperature62.7 °F84 °F (2:50 pm)42.8 °F (6:44 am)
Dewpoint38.9 °F45 °F (8:55 am)33.8 °F (12:46 pm)
Humidity44.9 %77 % (5:50 am)12 % (2:50 pm)
Barometer30.10 in30.31 in (9:43 am)29.72 in (5:50 pm)
Wind Speed2.8 mph9.2 mph (5:50 pm)
Weather ElementAverage
Visibility7.5 mi
Wind DirectionESE (112.2 °)

Weather ElementTotal
Precipitation---
Heating Degree Days1.6 (Base 65)
Growing Degree Days13.4 (Base 50)
Averaged from 37 records on February 8, 2013
WEATHER CONDITIONS BREAKOUT
WIND DIRECTION BREAKOUT
WEATHER BY HOUR - FEBRUARY 8, 2013
[ °C ]   °F
Local TimeTemperatureDewpointHumidityBarometerVisibilityWind DirectionWind SpeedGust SpeedPrecipitationEventsConditions
1:40 AM51.8 °F37.4 °F58 %30.24 in7.0 miCalmClear
2:40 AM48.2 °F37.4 °F66 %29.85 in7.0 miCalmClear
2:50 AM53.0 °F41.0 °F53 %29.86 in5.0 miSouth (180°)2.2 mph
3:41 AM46.4 °F35.6 °F66 %30.23 in8.0 miCalmClear
4:40 AM46.4 °F35.6 °F66 %30.23 in7.0 miCalmClear
5:40 AM46.4 °F35.6 °F66 %29.93 in8.0 miCalmClear
5:50 AM48.0 °F43.0 °F77 %29.89 in5.0 miSSW (210°)2.2 mph
6:44 AM42.8 °F35.6 °F76 %30.25 in8.0 miCalmClear
7:43 AM42.8 °F35.6 °F76 %30.28 in8.0 miCalmClear
8:11 AM46.4 °F37.4 °F71 %30.29 in8.0 miCalmClear
8:29 AM50.0 °F39.2 °F66 %30.29 in8.0 miCalmClear
8:45 AM51.8 °F39.2 °F62 %29.98 in8.0 miCalmClear
8:55 AM53.0 °F45.0 °F66 %30.04 in6.0 miSSE (160°)2.2 mph
9:17 AM55.4 °F41.0 °F58 %30.30 in8.0 miCalmClear
9:32 AM59.0 °F41.0 °F51 %30.30 in8.0 miCalmClear
9:43 AM60.8 °F41.0 °F48 %30.31 in8.0 miCalmClear
10:21 AM64.4 °F41.0 °F42 %30.30 in8.0 miVariable3.5 mphClear
10:36 AM68.0 °F41.0 °F37 %30.30 in8.0 miCalmClear
10:44 AM69.8 °F41.0 °F35 %30.30 in8.0 miCalmClear
11:25 AM73.4 °F42.8 °F33 %30.29 in8.0 miEast (90°)4.6 mphClear
11:47 AM73.4 °F39.2 °F29 %29.90 in8.0 miNW (310°)4.6 mphClear
11:55 AM77.0 °F42.0 °F18 %29.98 in9.0 miSSE (160°)2.2 mph
12:20 PM77.0 °F37.4 °F24 %30.25 in8.0 miNorth (360°)5.8 mphClear
12:46 PM77.0 °F33.8 °F21 %30.24 in8.0 miWNW (300°)6.9 mphClear
1:49 PM78.8 °F35.6 °F21 %30.19 in8.0 miNNW (340°)6.9 mphClear
2:47 PM82.4 °F35.6 °F19 %29.76 in8.0 miWest (280°)8.1 mphPartly Cloudy
2:50 PM84.0 °F40.0 °F12 %29.83 in9.0 miNNE (30°)8.9 mph
3:49 PM82.4 °F35.6 °F19 %30.13 in8.0 miSouth (180°)3.5 mphScattered Clouds
4:52 PM80.6 °F39.2 °F23 %30.13 in8.0 miSouth (170°)6.9 mphScattered Clouds
5:50 PM77.0 °F41.0 °F18 %29.72 in9.0 miSSE (150°)4.5 mphPartly Cloudy
5:50 PM77.0 °F41.0 °F28 %29.79 in8.0 miSouth (180°)9.2 mphScattered Clouds
7:06 PM69.8 °F39.2 °F33 %30.15 in8.0 miSouth (170°)5.8 mphScattered Clouds
7:43 PM66.2 °F39.2 °F37 %30.17 in7.0 miSouth (180°)2.3 mphClear
8:47 PM64.4 °F39.2 °F40 %29.85 in6.0 miWest (260°)6.9 mphClear
9:43 PM60.8 °F39.2 °F45 %30.21 in6.0 miSW (220°)4.6 mphClear
10:47 PM59.0 °F39.2 °F48 %30.22 in6.0 miSW (220°)3.5 mphClear
11:47 PM53.6 °F37.4 °F54 %29.85 in6.0 miCalmClear
Hourly data recorded from MMMM, located miles away from Morelia, Michoacan




STORIES FROM OUR PARTNERS